NOAA 16 DEB, 41276

Orbit data source: Space-Track

NOAA 16 DEB, 41276 is space debris in SSO originally from a launch on Thu, 21 Sep 2000 UTC launched from the Air Force Western Test Range (AFWTR). Debris objects in space refer to the collection of defunct objects orbiting the Earth. Examples of debris include non-operational satellites, rocket bodies, and fragments generated from explosions, collisions, or faulty payload assembly.

Loading next visibility...
Identifier
41276, 2000-055GC
Orbit
SSO
Country
Flag of USUS
Related business
Manufacturer
Unknown
Mission
Spacecraft
Bus & Motor
Unknown
Mass
Unknown
Launch date (UTC)
2000-09-21 (26 years ago)
Launch vehicle
Unknown
Launch site
Air Force Western Test Range (AFWTR)
Object type
Payload
Rocket body
Debris
Shape & HBR
Unknown shape, 0.1 m
Radar Cross Section
Medium (>0.1 m² and <1 m²)

Expand to show TLE details & history
Last TLE update: 1 day ago

TLE from 1 day ago
0 NOAA 16 DEB
1 41276U 00055GC  26262.35406226  .00001622  00000-0  71810-3 0  9997
2 41276  98.6456 310.6336 0012113 228.9135 131.0999 14.24497492554428
Epoch: 2026-09-19T08:29Z
TLE epoch observation values (Epoch: 2026-09-19T08:29:50.979Z)
Latitude
0.00002°
Longitude
-175.09262°
Altitude
818.836 km
Speed
7.441 km/s
True Right ascension
20h 42m 32s
True Declination
0° 00' 00"
Sunlit
Object was in full shadow at epoch
Visualization orbit readout
Latitude
Unknown
Longitude
Unknown
Altitude
Unknown
Speed
Unknown
Apparent Right ascension
Unknown
Apparent Declination
Unknown
Sunlit
N/A
Visualization observer readout
Local Sidereal Time
06:07:35
Azimuth
Unknown
Elevation
Unknown
Doppler factor
Unknown
Orbital elements
Apogee altitude
816.036 km
Perigee altitude
798.628 km
Semi-major axis
7,185.469 km
Eccentricity
0.00121
Inclination
98.6456°
RAAN
310.6336°
Arg. of periapsis
228.9135°
True anomaly
131.20439°
Mean anomaly
131.0999°
Eccentric anomaly
131.15216°
Mean motion
3.56337 °/min
Orbital period
101.03 mins
BSTAR
0.0007181
Loading maneuver chart data...
Computing Atmospheric mass density...
Loading historical data...
Loading historical data...
Loading historical data...
Loading historical data...
Loading historical data...
Loading historical data...
Loading historical data...

Documentation

Showing up to 5 results
|